FW8954 Weather Reports


Display with metric or nautical units.
time (UTC)temp
F
wind
direction
speed
MPH
gust
MPH
rain 1hr
in
rain 24hr
in
rain mn
in
humidity
%
barometer
mb
20210922012533 71 138 2.0 3.0 0.00 0.00 0.00 23 1029.3
20210922012051 71 134 0.0 1.0 0.00 0.00 0.00 23 1029.2
20210922011700 72 0 0.0 1.0 0.00 0.00 0.00 23 1029.2
20210922011044 72 0 0.0 2.0 0.00 0.00 0.00 22 1029.2
20210922010534 73 0 1.0 5.0 0.00 0.00 0.00 22 1029.1
20210922010050 73 138 2.0 5.0 0.00 0.00 0.00 21 1029.1
20210922005533 73 124 2.0 3.0 0.00 0.00 0.00 21 1029.1
20210922005101 74 133 0.0 3.0 0.00 0.00 0.00 21 1029.1
20210922004620 74 157 0.0 3.0 0.00 0.00 0.00 21 1029.1
20210922004033 74 147 1.0 3.0 0.00 0.00 0.00 20 1029.1
20210922003535 74 143 1.0 5.0 0.00 0.00 0.00 20 1029.1
20210922003203 74 123 0.0 5.0 0.00 0.00 0.00 20 1029.0
20210922002541 74 144 2.0 4.0 0.00 0.00 0.00 20 1029.2
20210922002035 74 138 1.0 4.0 0.00 0.00 0.00 20 1029.1
20210922001608 74 127 1.0 4.0 0.00 0.00 0.00 21 1029.1
20210922001035 75 137 2.0 4.0 0.00 0.00 0.00 20 1029.1
20210922000538 75 128 1.0 4.0 0.00 0.00 0.00 21 1029.2
20210922000055 75 131 0.0 2.0 0.00 0.00 0.00 21 1029.1
20210921235543 75 143 1.0 3.0 0.00 0.00 0.00 20 1029.2
20210921235035 75 113 0.0 6.0 0.00 0.00 0.00 21 1029.2
20210921234615 76 116 2.0 6.0 0.00 0.00 0.00 20 1029.2
20210921234039 76 131 0.0 4.0 0.00 0.00 0.00 19 1029.2
20210921233555 76 129 2.0 4.0 0.00 0.00 0.00 19 1029.2
20210921233156 77 137 0.0 5.0 0.00 0.00 0.00 18 1029.2
20210921232533 76 199 1.0 7.0 0.00 0.00 0.00 19 1029.2
20210921232034 77 126 3.0 7.0 0.00 0.00 0.00 19 1029.2
20210921231640 77 130 0.0 5.0 0.00 0.00 0.00 19 1029.1
20210921231039 77 165 2.0 7.0 0.00 0.00 0.00 19 1029.1
20210921230534 77 150 3.0 7.0 0.00 0.00 0.00 19 1029.1
20210921230131 76 155 2.0 6.0 0.00 0.00 0.00 20 1029.2
20210921225539 76 114 1.0 6.0 0.00 0.00 0.00 21 1029.1
20210921225034 76 32 2.0 5.0 0.00 0.00 0.00 20 1029.2
20210921224647 76 255 1.0 5.0 0.00 0.00 0.00 22 1029.3
20210921224049 76 162 2.0 5.0 0.00 0.00 0.00 21 1029.3
20210921223539 76 49 3.0 6.0 0.00 0.00 0.00 22 1029.3
20210921223049 76 352 3.0 6.0 0.00 0.00 0.00 21 1029.3
20210921222537 76 162 2.0 7.0 0.00 0.00 0.00 21 1029.3
20210921222034 76 355 3.0 7.0 0.00 0.00 0.00 21 1029.4
20210921221558 76 110 1.0 4.0 0.00 0.00 0.00 22 1029.4
20210921221033 76 138 2.0 4.0 0.00 0.00 0.00 23 1029.3
20210921220538 76 130 1.0 4.0 0.00 0.00 0.00 20 1029.4
20210921220058 76 207 1.0 6.0 0.00 0.00 0.00 21 1029.5
20210921215539 76 127 3.0 9.0 0.00 0.00 0.00 21 1029.5
20210921215040 76 153 3.0 9.0 0.00 0.00 0.00 21 1029.6
20210921214554 76 148 1.0 5.0 0.00 0.00 0.00 20 1029.5
20210921214037 76 125 2.0 4.0 0.00 0.00 0.00 21 1029.7
20210921213533 75 219 0.0 4.0 0.00 0.00 0.00 22 1029.7
20210921213125 75 299 2.0 6.0 0.00 0.00 0.00 20 1029.7
20210921212542 75 308 3.0 6.0 0.00 0.00 0.00 21 1029.8
20210921212033 75 304 2.0 5.0 0.00 0.00 0.00 22 1029.9
20210921211613 76 84 1.0 7.0 0.00 0.00 0.00 22 1030.0
20210921211033 76 136 2.0 7.0 0.00 0.00 0.00 21 1030.0
20210921210536 75 131 3.0 5.0 0.00 0.00 0.00 21 1030.1
20210921210148 74 16 2.0 5.0 0.00 0.00 0.00 23 1030.1
20210921205535 74 330 2.0 7.0 0.00 0.00 0.00 22 1030.1
20210921205044 74 334 2.0 7.0 0.00 0.00 0.00 24 1030.2
20210921204616 75 330 2.0 6.0 0.00 0.00 0.00 22 1030.2
20210921204036 75 127 2.0 6.0 0.00 0.00 0.00 22 1030.3
20210921203547 75 50 2.0 4.0 0.00 0.00 0.00 23 1030.3
20210921203110 76 0 1.0 2.0 0.00 0.00 0.00 22 1030.4
20210921202547 76 159 0.0 3.0 0.00 0.00 0.00 22 1030.4
20210921202033 75 129 1.0 7.0 0.00 0.00 0.00 25 1030.5
20210921201609 75 264 4.0 7.0 0.00 0.00 0.00 24 1030.7
20210921201035 76 145 1.0 6.0 0.00 0.00 0.00 22 1030.7
20210921200537 75 274 1.0 7.0 0.00 0.00 0.00 23 1030.7
20210921200116 74 120 3.0 7.0 0.00 0.00 0.00 23 1030.8
20210921195537 75 46 3.0 6.0 0.00 0.00 0.00 23 1030.8
20210921195033 75 11 1.0 6.0 0.00 0.00 0.00 24 1030.9
20210921194549 75 132 2.0 5.0 0.00 0.00 0.00 23 1031.1
20210921194031 74 138 0.0 4.0 0.00 0.00 0.00 22 1031.1
20210921193535 74 319 1.0 5.0 0.00 0.00 0.00 21 1031.1
20210921193105 73 11 1.0 5.0 0.00 0.00 0.00 22 1031.2
20210921192532 72 55 0.0 8.0 0.00 0.00 0.00 23 1031.3
20210921192037 72 324 4.0 8.0 0.00 0.00 0.00 23 1031.4
20210921191616 72 343 3.0 6.0 0.00 0.00 0.00 20 1031.4
20210921191034 72 62 1.0 7.0 0.00 0.00 0.00 18 1031.6
20210921190540 72 343 3.0 7.0 0.00 0.00 0.00 20 1031.7
20210921190059 72 36 1.0 6.0 0.00 0.00 0.00 19 1031.8
20210921185536 73 134 2.0 6.0 0.00 0.00 0.00 21 1031.9
20210921185038 73 34 1.0 5.0 0.00 0.00 0.00 21 1031.9
20210921184618 72 202 2.0 5.0 0.00 0.00 0.00 22 1032.0
20210921184034 71 126 2.0 5.0 0.00 0.00 0.00 22 1032.0
20210921183538 71 34 2.0 7.0 0.00 0.00 0.00 25 1032.1
20210921183053 71 319 4.0 7.0 0.00 0.00 0.00 24 1032.1
20210921182534 72 51 1.0 5.0 0.00 0.00 0.00 24 1032.2
20210921182047 73 104 1.0 5.0 0.00 0.00 0.00 23 1032.1
20210921181815 73 117 2.0 4.0 0.00 0.00 0.00 24 1032.1
20210921181041 72 217 0.0 4.0 0.00 0.00 0.00 25 1032.1
20210921180553 72 137 0.0 7.0 0.00 0.00 0.00 25 1032.1
20210921180112 71 222 2.0 7.0 0.00 0.00 0.00 25 1032.1
20210921175539 70 219 1.0 6.0 0.00 0.00 0.00 28 1032.2
20210921175046 69 34 2.0 6.0 0.00 0.00 0.00 29 1032.2
20210921174559 69 138 3.0 6.0 0.00 0.00 0.00 28 1032.3
20210921174038 69 120 3.0 6.0 0.00 0.00 0.00 28 1032.3
20210921173533 70 37 0.0 5.0 0.00 0.00 0.00 29 1032.3
20210921173112 69 268 0.0 6.0 0.00 0.00 0.00 28 1032.3
20210921172541 69 136 1.0 6.0 0.00 0.00 0.00 28 1032.3
20210921172034 69 141 2.0 7.0 0.00 0.00 0.00 28 1032.4
20210921171539 69 118 3.0 7.0 0.00 0.00 0.00 29 1032.4
20210921171037 69 207 2.0 6.0 0.00 0.00 0.00 29 1032.4
20210921170536 69 41 1.0 6.0 0.00 0.00 0.00 28 1032.4
20210921170045 69 152 1.0 6.0 0.00 0.00 0.00 28 1032.4
20210921165533 69 140 2.0 5.0 0.00 0.00 0.00 28 1032.3
20210921165039 69 128 1.0 7.0 0.00 0.00 0.00 29 1032.4
20210921164551 68 180 2.0 8.0 0.00 0.00 0.00 29 1032.4
20210921164032 68 108 3.0 8.0 0.00 0.00 0.00 30 1032.4
20210921163532 68 118 4.0 8.0 0.00 0.00 0.00 29 1032.3
20210921163048 68 38 2.0 6.0 0.00 0.00 0.00 30 1032.3
20210921162538 68 158 2.0 6.0 0.00 0.00 0.00 30 1032.3
20210921162047 68 120 2.0 6.0 0.00 0.00 0.00 30 1032.2
20210921161550 68 31 1.0 8.0 0.00 0.00 0.00 31 1032.1
20210921161033 67 130 3.0 8.0 0.00 0.00 0.00 31 1032.1
20210921160544 68 4 3.0 8.0 0.00 0.00 0.00 31 1032.0
20210921160056 68 98 2.0 6.0 0.00 0.00 0.00 30 1032.0
20210921155533 68 135 1.0 5.0 0.00 0.00 0.00 31 1032.0
20210921155034 68 178 1.0 5.0 0.00 0.00 0.00 30 1031.9
20210921154608 68 160 1.0 4.0 0.00 0.00 0.00 30 1031.8
20210921154034 67 123 2.0 5.0 0.00 0.00 0.00 30 1031.7
20210921153533 67 144 1.0 5.0 0.00 0.00 0.00 30 1031.6
20210921153050 67 120 1.0 5.0 0.00 0.00 0.00 29 1031.6
20210921152534 66 208 1.0 5.0 0.00 0.00 0.00 30 1031.5
20210921152038 66 141 2.0 6.0 0.00 0.00 0.00 29 1031.4
20210921151604 66 204 2.0 6.0 0.00 0.00 0.00 30 1031.3
20210921151032 66 274 2.0 6.0 0.00 0.00 0.00 32 1031.3
20210921150538 64 252 3.0 6.0 0.00 0.00 0.00 34 1031.3
20210921150041 64 73 2.0 6.0 0.00 0.00 0.00 34 1031.3
20210921145532 63 311 1.0 6.0 0.00 0.00 0.00 34 1031.3
20210921145106 62 283 1.0 7.0 0.00 0.00 0.00 35 1031.2
20210921144547 62 238 2.0 7.0 0.00 0.00 0.00 35 1031.1
20210921144034 61 271 2.0 6.0 0.00 0.00 0.00 34 1031.0
20210921143534 60 330 3.0 6.0 0.00 0.00 0.00 34 1031.0
20210921143057 60 265 2.0 5.0 0.00 0.00 0.00 33 1030.9
20210921142616 60 236 2.0 5.0 0.00 0.00 0.00 32 1030.9
20210921142034 59 229 2.0 4.0 0.00 0.00 0.00 31 1030.9
20210921141611 59 243 1.0 4.0 0.00 0.00 0.00 31 1030.9
20210921141034 59 262 1.0 3.0 0.00 0.00 0.00 29 1030.8
20210921140534 59 189 0.0 2.0 0.00 0.00 0.00 29 1030.7
20210921140129 58 224 0.0 1.0 0.00 0.00 0.00 28 1030.7
20210921135550 58 204 0.0 1.0 0.00 0.00 0.00 28 1030.7
20210921135044 57 214 0.0 1.0 0.00 0.00 0.00 28 1030.7
20210921134559 57 0 0.0 1.0 0.00 0.00 0.00 28 1030.6
20210921134039 56 259 0.0 2.0 0.00 0.00 0.00 29 1030.6
20210921133540 55 0 0.0 2.0 0.00 0.00 0.00 30 1030.4
20210921133219 54 258 0.0 1.0 0.00 0.00 0.00 30 1030.4
20210921132537 53 0 0.0 1.0 0.00 0.00 0.00 31 1030.3
20210921132041 52 258 0.0 3.0 0.00 0.00 0.00 31 1030.2
20210921131553 52 269 0.0 3.0 0.00 0.00 0.00 31 1030.0
20210921131036 52 238 1.0 3.0 0.00 0.00 0.00 31 1030.0
20210921130532 52 257 0.0 3.0 0.00 0.00 0.00 30 1029.9
20210921130049 52 245 1.0 2.0 0.00 0.00 0.00 30 1029.7
20210921125532 52 215 0.0 1.0 0.00 0.00 0.00 31 1029.6
20210921125038 52 0 0.0 2.0 0.00 0.00 0.00 30 1029.5
20210921124638 52 250 0.0 3.0 0.00 0.00 0.00 30 1029.4
20210921124034 52 253 0.0 3.0 0.00 0.00 0.00 29 1029.3
20210921123535 52 261 1.0 3.0 0.00 0.00 0.00 29 1029.2
20210921123043 52 271 2.0 3.0 0.00 0.00 0.00 30 1029.2
20210921122532 52 259 1.0 3.0 0.00 0.00 0.00 29 1029.0
20210921122034 52 255 0.0 3.0 0.00 0.00 0.00 30 1029.0
20210921121545 52 273 1.0 3.0 0.00 0.00 0.00 30 1029.0
20210921121033 52 257 1.0 4.0 0.00 0.00 0.00 30 1028.8
20210921120533 51 255 0.0 4.0 0.00 0.00 0.00 31 1028.7
20210921120133 51 239 2.0 4.0 0.00 0.00 0.00 31 1028.5
20210921115537 51 241 2.0 3.0 0.00 0.00 0.00 31 1028.4
20210921115034 51 255 0.0 3.0 0.00 0.00 0.00 32 1028.3
20210921114547 51 233 1.0 5.0 0.00 0.00 0.00 32 1028.2
20210921114042 51 250 2.0 5.0 0.00 0.00 0.00 32 1028.1
20210921113535 51 195 0.0 3.0 0.00 0.00 0.00 33 1027.9
20210921113118 51 0 0.0 3.0 0.00 0.00 0.00 34 1028.0
20210921112535 51 0 0.0 3.0 0.00 0.00 0.00 34 1027.7
20210921112034 51 277 0.0 2.0 0.00 0.00 0.00 34 1027.6
20210921111557 52 0 0.0 2.0 0.00 0.00 0.00 34 1027.4
20210921111033 53 208 0.0 1.0 0.00 0.00 0.00 34 1027.4
20210921110533 54 158 0.0 1.0 0.00 0.00 0.00 32 1027.3
20210921110135 54 260 0.0 2.0 0.00 0.00 0.00 32 1027.4
20210921105532 54 259 1.0 2.0 0.00 0.00 0.00 32 1027.3
20210921105044 54 264 0.0 1.0 0.00 0.00 0.00 32 1027.3
20210921104711 54 0 0.0 1.0 0.00 0.00 0.00 32 1027.3
20210921104032 55 0 0.0 1.0 0.00 0.00 0.00 32 1027.2
20210921103537 55 265 0.0 1.0 0.00 0.00 0.00 32 1027.2
20210921103102 55 0 0.0 1.0 0.00 0.00 0.00 32 1027.2
20210921102535 55 0 0.0 1.0 0.00 0.00 0.00 32 1027.2
20210921102032 55 346 0.0 1.0 0.00 0.00 0.00 32 1027.1
20210921101550 56 15 0.0 2.0 0.00 0.00 0.00 31 1027.1
20210921101037 55 0 0.0 2.0 0.00 0.00 0.00 31 1027.1
20210921100537 55 50 0.0 2.0 0.00 0.00 0.00 30 1027.2
20210921100116 54 257 0.0 2.0 0.00 0.00 0.00 30 1027.0
20210921095534 53 0 0.0 1.0 0.00 0.00 0.00 32 1026.9
20210921095034 54 141 0.0 1.0 0.00 0.00 0.00 33 1026.8
20210921094614 54 0 0.0 1.0 0.00 0.00 0.00 32 1026.7
20210921094037 55 199 0.0 0.0 0.00 0.00 0.00 31 1026.5
20210921093532 56 0 0.0 1.0 0.00 0.00 0.00 31 1026.5
20210921093056 57 0 0.0 1.0 0.00 0.00 0.00 28 1026.3
20210921092535 57 244 0.0 2.0 0.00 0.00 0.00 28 1026.2
20210921092034 57 0 0.0 3.0 0.00 0.00 0.00 28 1026.0
20210921091608 57 239 0.0 3.0 0.00 0.00 0.00 29 1025.9
20210921091031 57 213 0.0 3.0 0.00 0.00 0.00 29 1025.8
20210921090546 57 183 0.0 3.0 0.00 0.00 0.00 30 1025.8
20210921090040 57 0 0.0 3.0 0.00 0.00 0.00 30 1025.7
20210921085533 58 248 0.0 3.0 0.00 0.00 0.00 29 1025.8
20210921085044 58 263 0.0 3.0 0.00 0.00 0.00 29 1025.6
20210921084619 59 314 1.0 3.0 0.00 0.00 0.00 28 1025.6
20210921084046 60 131 1.0 3.0 0.00 0.00 0.00 28 1025.5
20210921083532 60 245 1.0 4.0 0.00 0.00 0.00 28 1025.5
20210921083208 60 51 1.0 4.0 0.00 0.00 0.00 28 1025.5
20210921082559 60 233 1.0 4.0 0.00 0.00 0.00 28 1025.5
20210921082031 60 275 1.0 5.0 0.00 0.00 0.00 28 1025.4
20210921081627 61 146 1.0 5.0 0.00 0.00 0.00 28 1025.3
20210921081041 61 206 1.0 5.0 0.00 0.00 0.00 28 1025.3
20210921080534 61 283 1.0 4.0 0.00 0.00 0.00 28 1025.4
20210921080118 61 0 0.0 2.0 0.00 0.00 0.00 28 1025.5
20210921075541 61 133 0.0 2.0 0.00 0.00 0.00 30 1025.5
20210921075046 61 237 0.0 2.0 0.00 0.00 0.00 30 1025.4
20210921074611 60 290 0.0 2.0 0.00 0.00 0.00 31 1025.4
20210921074039 60 0 0.0 2.0 0.00 0.00 0.00 32 1025.3
20210921073534 60 250 0.0 3.0 0.00 0.00 0.00 32 1025.4
20210921073042 61 245 1.0 3.0 0.00 0.00 0.00 31 1025.4
20210921072538 61 245 0.0 2.0 0.00 0.00 0.00 31 1025.3
20210921072032 62 246 0.0 2.0 0.00 0.00 0.00 30 1025.2
20210921071557 62 0 0.0 2.0 0.00 0.00 0.00 30 1025.2
20210921071036 62 251 1.0 2.0 0.00 0.00 0.00 30 1025.2
20210921070535 62 250 0.0 1.0 0.00 0.00 0.00 30 1025.2
20210921070129 63 243 0.0 1.0 0.00 0.00 0.00 29 1025.2
20210921065534 63 290 0.0 1.0 0.00 0.00 0.00 29 1025.1
20210921065037 63 295 0.0 1.0 0.00 0.00 0.00 28 1025.1
20210921064631 64 0 0.0 1.0 0.00 0.00 0.00 27 1025.0
20210921064045 64 313 0.0 1.0 0.00 0.00 0.00 27 1024.9
20210921063537 64 0 0.0 1.0 0.00 0.00 0.00 27 1024.9
20210921063151 65 0 0.0 1.0 0.00 0.00 0.00 26 1024.9
20210921062534 66 0 0.0 1.0 0.00 0.00 0.00 26 1024.9
20210921062034 66 41 0.0 1.0 0.00 0.00 0.00 26 1024.8
20210921061603 66 44 0.0 1.0 0.00 0.00 0.00 26 1024.8
20210921061032 67 0 0.0 1.0 0.00 0.00 0.00 25 1024.7
20210921060535 67 0 0.0 0.0 0.00 0.00 0.00 24 1024.6
20210921060115 67 0 0.0 3.0 0.00 0.00 0.00 24 1024.6
20210921055540 67 325 0.0 3.0 0.00 0.00 0.00 24 1024.5
20210921055034 67 295 0.0 4.0 0.00 0.00 0.00 24 1024.4
20210921054600 68 295 1.0 6.0 0.00 0.00 0.00 24 1024.4
20210921054105 68 320 2.0 6.0 0.00 0.00 0.00 24 1024.4
20210921053533 69 305 2.0 6.0 0.00 0.00 0.00 24 1024.3
20210921053058 69 310 2.0 7.0 0.00 0.00 0.00 23 1024.2
20210921052531 69 338 4.0 7.0 0.00 0.00 0.00 23 1024.2
20210921052035 69 346 4.0 9.0 0.00 0.00 0.00 23 1024.0
20210921051629 69 334 4.0 9.0 0.00 0.00 0.00 23 1023.9
20210921051034 69 315 3.0 8.0 0.00 0.00 0.00 23 1023.9
20210921050532 69 313 2.0 6.0 0.00 0.00 0.00 24 1023.8
20210921050110 70 323 2.0 5.0 0.00 0.00 0.00 23 1023.8
20210921045543 70 314 3.0 7.0 0.00 0.00 0.00 23 1023.8
20210921045038 70 319 3.0 7.0 0.00 0.00 0.00 23 1023.7
20210921044608 70 354 3.0 7.0 0.00 0.00 0.00 23 1023.7
20210921044043 70 19 3.0 6.0 0.00 0.00 0.00 23 1023.6
20210921043623 71 338 2.0 7.0 0.00 0.00 0.00 22 1023.5
20210921043055 71 329 3.0 10.0 0.00 0.00 0.00 22 1023.4
20210921042534 71 338 4.0 10.0 0.00 0.00 0.00 22 1023.3
20210921042036 71 314 4.0 9.0 0.00 0.00 0.00 22 1023.3
20210921041615 72 327 2.0 8.0 0.00 0.00 0.00 22 1023.2
20210921041036 72 328 3.0 10.0 0.00 0.00 0.00 22 1023.1
20210921040532 72 314 5.0 10.0 0.00 0.00 0.00 22 1023.0
20210921040110 72 1 3.0 12.0 0.00 0.00 0.00 22 1022.9
20210921035547 72 340 6.0 12.0 0.00 0.00 0.00 22 1022.7
20210921035032 72 39 4.0 14.0 0.00 0.00 0.00 22 1022.7
20210921034622 72 351 6.0 14.0 0.00 0.00 0.00 22 1022.7
20210921034033 72 27 3.0 9.0 0.00 0.00 0.00 22 1022.7
20210921033535 72 14 2.0 9.0 0.00 0.00 0.00 22 1022.6
20210921033120 71 320 2.0 5.0 0.00 0.00 0.00 23 1022.5
20210921032533 71 353 0.0 1.0 0.00 0.00 0.00 23 1022.5
20210921032039 72 18 0.0 1.0 0.00 0.00 0.00 23 1022.4
20210921031658 72 0 0.0 5.0 0.00 0.00 0.00 22 1022.3
20210921031039 73 0 0.0 8.0 0.00 0.00 0.00 22 1022.2
20210921030544 73 13 2.0 8.0 0.00 0.00 0.00 22 1022.0
20210921030211 73 323 3.0 10.0 0.00 0.00 0.00 22 1021.9
20210921025533 73 99 2.0 10.0 0.00 0.00 0.00 22 1021.7
20210921025057 73 337 4.0 12.0 0.00 0.00 0.00 21 1021.6
20210921024709 74 327 5.0 12.0 0.00 0.00 0.00 21 1021.4
20210921024035 74 324 5.0 9.0 0.00 0.00 0.00 21 1021.2
20210921023532 74 327 5.0 10.0 0.00 0.00 0.00 21 1020.9
20210921023201 74 338 5.0 10.0 0.00 0.00 0.00 21 1020.7
20210921022545 74 14 3.0 9.0 0.00 0.00 0.00 21 1020.7
20210921022040 74 308 4.0 10.0 0.00 0.00 0.00 21 1020.5
20210921021635 74 360 3.0 10.0 0.00 0.00 0.00 21 1020.4
20210921021041 75 294 5.0 13.0 0.00 0.00 0.00 21 1020.3
20210921020533 75 293 7.0 13.0 0.00 0.00 0.00 21 1020.2
20210921020207 75 324 6.0 13.0 0.00 0.00 0.00 21 1020.2
20210921015533 75 229 5.0 13.0 0.00 0.00 0.00 21 1020.1
20210921015033 76 331 5.0 13.0 0.00 0.00 0.00 21 1020.0
20210921014555 76 236 4.0 11.0 0.00 0.00 0.00 21 1019.9
20210921014038 76 347 5.0 11.0 0.00 0.00 0.00 21 1019.8
20210921013542 76 212 3.0 11.0 0.00 0.00 0.00 21 1019.6
20210921013104 76 319 5.0 13.0 0.00 0.00 0.00 20 1019.5